Curacao, Curacao

2:10 AM AST on April 30, 2017 (GMT -0400)
Willemstad-Hato International

Weather History for TNCC - January, 2013

Change the Weather History Date:

Sunday, January 6, 2013

  Actual Average Record
Temperature  
Mean Temperature 80 °F -  
Max Temperature 85 °F 84 °F 87 °F (1998)
Min Temperature 75 °F 75 °F 68 °F (2014)
Cooling Degree Days 15    
Growing Degree Days 30 (Base 50)    
Moisture  
Dew Point 73 °F    
Average Humidity 78    
Maximum Humidity 89    
Minimum Humidity 61    
Precipitation  
Precipitation 0.01 in 0.06 in - ()
Sea Level Pressure  
Sea Level Pressure 29.94 in    
Wind  
Wind Speed 11 mph ()    
Max Wind Speed 17 mph    
Max Gust Speed 29 mph    
Visibility 8.5 miles    
Events      
Averages and records for this station are not official NWS values.
T = Trace of Precipitation, MM = Missing Value Source: Averaged Metar Reports

Daily Weather History Graph

Daily Weather History Graph

Search for Another Location

Airport or City:

Trip Planner

Search our weather history database for the weather conditions in past years. The results will help you decide how hot, cold, wet, or windy it might be!

Date:

Astronomy

Jan. 06, 2013 Rise Set
Actual Time 6:58 AM AST 6:25 PM AST
Civil Twilight 6:35 AM AST 6:48 PM AST
Nautical Twilight 6:09 AM AST 7:14 PM AST
Astronomical Twilight 5:43 AM AST 7:40 PM AST
Moon 1:32 AM AST (1/6) 1:31 PM AST (1/6)
Length of Visible Light 12h 12m
Length of Day
11h 26m
Waning Crescent, 34% of the Moon is Illuminated
Jan 6
Waning Crescent
Jan 11
New
Jan 18
First Quarter
Jan 27
Full
Feb 3
Last Quarter

Hourly Weather History & Observations

Time (AST) Temp. Heat Index Dew Point Humidity Pressure Visibility Wind Dir Wind Speed Gust Speed Precip Events Conditions
12:00 AM 78.8 °F - 73.4 °F 83% 29.98 in 6.2 mi East 13.8 mph - N/A   Scattered Clouds
2:00 AM 78.8 °F - 73.4 °F 83% 29.95 in 6.2 mi East 16.1 mph - N/A   Scattered Clouds
5:00 AM 75.2 °F - 71.6 °F 89% 29.92 in 6.2 mi ESE 8.1 mph - N/A   Scattered Clouds
6:00 AM 77.0 °F - 73.4 °F 89% 29.92 in 6.2 mi ESE 8.1 mph - N/A   Scattered Clouds
7:00 AM 77.0 °F - 73.4 °F 89% 29.95 in 6.2 mi ESE 10.4 mph - N/A   Scattered Clouds
8:00 AM 78 °F - 74 °F 83% 29.97 in 16 mi ESE 11.5 mph - -   Partly Cloudy
8:00 AM 78.8 °F - 73.4 °F 83% 29.95 in 6.2 mi ESE 11.5 mph - N/A   Scattered Clouds
9:00 AM 80.6 °F 86.2 °F 75.2 °F 84% 29.98 in 6.2 mi ESE 12.7 mph - N/A   Scattered Clouds
10:00 AM 82.4 °F 89.5 °F 75.2 °F 79% 29.98 in 6.2 mi East 12.7 mph - N/A   Scattered Clouds
11:00 AM 81 °F - 73 °F 70% 30.00 in 16 mi ESE 17.3 mph - -   Partly Cloudy
11:00 AM 80.6 °F 85.4 °F 73.4 °F 79% 30.01 in 6.2 mi ESE 17.3 mph - N/A   Scattered Clouds
12:00 PM 82.4 °F 88.2 °F 73.4 °F 74% 29.98 in 6.2 mi East 10.4 mph - N/A   Scattered Clouds
1:00 PM 84.2 °F 90.9 °F 73.4 °F 70% 29.95 in 6.2 mi East 15.0 mph - N/A   Scattered Clouds
2:00 PM 85 °F - 73 °F 61% 29.92 in 19 mi East 13.8 mph - -   Partly Cloudy
2:00 PM 84.2 °F 90.9 °F 73.4 °F 70% 29.92 in 6.2 mi East 13.8 mph - N/A   Scattered Clouds
3:00 PM 82.4 °F 88.2 °F 73.4 °F 74% 29.89 in 6.2 mi ESE 11.5 mph - N/A   Partly Cloudy
4:00 PM 80.6 °F 85.4 °F 73.4 °F 79% 29.89 in 6.2 mi East 15.0 mph - N/A   Scattered Clouds
5:00 PM 82 °F - 73 °F 67% 29.90 in 16 mi ESE 13.8 mph - -   Partly Cloudy
5:00 PM 82.4 °F 87.2 °F 71.6 °F 70% 29.89 in 6.2 mi ESE 13.8 mph - N/A   Scattered Clouds
6:00 PM 80.6 °F 85.4 °F 73.4 °F 79% 29.89 in 6.2 mi East 11.5 mph - N/A   Partly Cloudy
7:00 PM 78.8 °F - 73.4 °F 83% 29.92 in 6.2 mi East 13.8 mph 28.8 mph N/A   Mostly Cloudy
8:00 PM 80 °F - 74 °F 78% 29.93 in 16 mi East 13.8 mph - -   Partly Cloudy
8:00 PM 78.8 °F - 73.4 °F 83% 29.92 in 6.2 mi East 13.8 mph - N/A   Scattered Clouds
9:00 PM 78.8 °F - 73.4 °F 83% 29.95 in 6.2 mi East 16.1 mph - N/A   Scattered Clouds
10:00 PM 78.8 °F - 73.4 °F 83% 29.95 in 6.2 mi ESE 10.4 mph - N/A   Scattered Clouds
11:00 PM 80 °F - 73 °F 74% 29.96 in 16 mi ESE 12.7 mph - -   Partly Cloudy
11:00 PM 80.6 °F 85.4 °F 73.4 °F 79% 29.95 in 6.2 mi ESE 12.7 mph - N/A   Partly Cloudy